Location: Caltech
(34.1382°N, 118.1253°W)
Time: 11:33:54
(UTC-07:00)

SL-8 R/B - Visible Passes

Search period start: 01 September 2014 00:00
Search period end: 11 September 2014 00:00
Orbit: 349 x 359 km, 98.1° (Epoch: 31 August)

Date Brightness Start Highest point End Pass type
(mag) Time Alt. Az. Time Alt. Az. Time Alt. Az.
01 Sep 4.9 04:36:56 10° N 04:37:42 17° N 04:37:42 17° N visible
02 Sep 5.0 05:03:56 10° NNW 05:04:19 12° NNW 05:04:19 12° NNW visible
04 Sep 5.3 04:25:01 10° NNE 04:25:32 14° NNE 04:25:32 14° NNE visible
05 Sep 5.0 04:51:15 10° N 04:51:45 14° NNW 04:51:45 14° NNW visible
07 Sep 5.9 04:12:06 10° NNE 04:12:10 10° NNE 04:12:10 10° NNE visible
08 Sep 5.3 04:37:36 10° N 04:37:59 13° N 04:37:59 13° N visible
09 Sep 5.1 05:03:30 10° NNW 05:03:40 11° NNW 05:03:40 11° NNW visible
